Probability
48 35 42 35 23 19 19 23 19 19 16 13 13 10 10 6 10 6 3 0 0 0 0 0 0 0 0 0 0 0 0 0 0 0 0 0 0 0 0 0 0 0 0
45 42 32 29 26 23 19 23 23 19 16 13 13 13 10 10 10 6 3 6 3 3 6 3 3 0 0 0 0 0 0 0 0 0 0 0 0 0 0 0 0 0 0
35 35 26 26 26 23 19 19 16 16 13 13 13 13 13 13 13 10 6 10 3 3 6 6 6 6 6 0 0 0 0 0 0 0 0 0 0 0 0 0 0 0 0
26 29 29 26 29 26 23 16 10 13 13 13 10 10 13 13 10 10 10 6 6 6 6 6 6 6 6 6 0 0 0 0 0 0 0 0 0 0 0 0 0 0 0
26 32 29 16 19 19 16 13 10 13 13 13 13 13 13 13 10 10 10 6 6 6 6 6 6 6 6 3 6 3 0 0 0 0 0 0 0 0 0 0 0 0 0
29 29 23 16 16 16 16 16 16 13 10 16 16 16 13 13 13 3 0 6 6 6 6 6 6 3 0 0 0 0 0 0 0 0 0 0 0 0 0 0 0 0 0
29 23 23 19 19 16 16 16 16 16 13 10 16 16 13 13 6 3 0 3 6 6 6 6 6 6 3 6 0 0 0 0 0 0 0 0 0 0 0 0 0 0 0
23 16 16 16 16 13 13 16 16 16 16 10 10 13 10 10 3 0 0 0 3 6 6 6 6 6 6 6 6 0 0 0 0 0 0 0 0 0 0 0 0 0 0
13 10 10 10 10 10 13 10 10 10 13 13 13 13 6 6 3 0 0 0 3 6 6 6 6 6 3 0 0 0 0 0 0 0 0 0 0 0 0 0 0 0 0
6 10 10 10 10 10 6 10 10 10 6 6 6 13 6 6 3 0 0 0 3 3 3 3 0 0 3 0 0 0 0 0 0 0 0 0 0 0 0 0 0 0 0
3 3 10 10 10 3 3 3 6 6 6 10 6 6 3 3 3 0 0 0 0 3 3 3 3 0 0 0 0 0 0 0 0 0 0 0 0 0 0 0 0 0 0
0 3 3 3 6 3 3 3 3 6 6 6 6 6 0 0 0 0 0 0 0 3 3 0 0 0 0 0 0 0 0 0 0 0 0 0 0 0 0 0 0 0 0
0 3 3 3 3 3 3 3 3 3 6 6 6 6 3 0 0 0 0 0 0 0 0 0 0 0 0 0 0 0 0 0 0 0 0 0 0 0 0 0 0 0 0
3 3 3 3 3 3 3 3 3 3 6 6 6 3 0 0 0 0 0 0 0 0 0 0 0 0 0 0 0 0 0 0 0 0 0 0 0 0 0 0 0 0 0
3 3 3 3 3 3 3 0 3 3 3 0 0 0 0 0 0 0 0 0 0 0 0 0 0 0 0 0 0 0 0 0 0 0 0 0 0 0 0 0 0 0 0
3 3 3 3 3 0 0 0 0 0 0 0 0 0 0 0 0 0 0 0 0 0 0 0 0 0 0 0 0 0 0 0 0 0 0 0 0 0 0 0 0 0 0
3 3 0 0 0 0 0 0 0 0 0 0 0 0 0 0 0 0 0 0 0 0 0 0 0 0 0 0 0 0 0 0 0 0 0 0 0 0 0 0 0 0 0
0 0 0 0 0 0 0 0 0 0 0 0 0 0 0 0 0 0 0 0 0 0 0 0 0 0 0 0 0 0 0 0 0 0 0 0 0 0 0 0 0 0 0
0 0 0 0 0 0 0 0 0 0 0 0 0 0 0 0 0 0 0 0 0 0 0 0 0 0 0 0 0 0 0 0 0 0 0 0 0 0 0 0 0 0 0
0 0 0 0 0 0 0 0 0 0 0 0 0 0 0 0 0 0 0 0 0 0 0 0 0 0 0 0 0 0 0 0 0 0 0 0 0 0 0 0 0 0 0
0 0 0 0 0 0 0 0 0 0 0 0 0 0 0 0 0 0 0 0 0 0 0 0 0 0 0 0 0 0 0 0 0 0 0 0 0 0 0 0 0 0 0
0 0 0 0 0 0 0 0 0 0 0 0 0 0 0 0 0 0 0 0 0 0 0 0 0 0 0 0 0 0 0 0 0 0 0 0 0 0 0 0 0 0 0
0 0 0 0 0 0 0 0 0 0 0 0 0 0 0 0 0 0 0 0 0 0 0 0 0 0 0 0 0 0 0 0 0 0 0 0 0 0 0 0 0 0 0
0 0 0 0 0 0 0 0 0 0 0 0 0 0 0 0 0 0 0 0 0 0 0 0 0 0 0 0 0 0 0 0 0 0 0 0 0 0 0 0 0 0 0
0 0 0 0 0 0 0 0 0 0 0 0 0 0 0 0 0 0 0 0 0 0 0 0 0 0 0 0 0 0 0 0 0 0 0 0 0 0 0 0 0 0 0
0 0 0 0 0 0 0 0 0 0 0 0 0 0 0 0 0 0 0 0 0 0 0 0 0 0 0 0 0 0 0 0 0 0 0 0 0 0 0 0 0 0 0
Height
5861 5862 5863 5863 5863 5863 5863 5864 5864 5865 5866 5866 5867 5867 5868 5868 5869 5869 5869 5870 5870 5870 5870 5870 5870 5871 5871 5870 5870 5870 5870 5869 5869 5868 5868 5867 5866 5866 5865 5865 5864 5864 5863
5859 5859 5860 5860 5860 5860 5860 5860 5861 5862 5862 5863 5863 5864 5865 5865 5866 5866 5866 5866 5867 5867 5867 5867 5867 5867 5867 5867 5866 5866 5866 5865 5865 5864 5864 5863 5862 5862 5861 5860 5860 5859 5858
5857 5857 5857 5857 5857 5857 5857 5857 5857 5858 5859 5859 5860 5861 5861 5862 5862 5863 5863 5863 5863 5863 5863 5863 5863 5863 5863 5863 5862 5862 5861 5861 5860 5860 5859 5858 5858 5857 5856 5856 5855 5854 5853
5853 5854 5854 5854 5854 5854 5854 5854 5854 5855 5855 5856 5857 5857 5858 5858 5858 5858 5859 5859 5859 5859 5859 5859 5859 5859 5858 5858 5858 5857 5857 5856 5856 5855 5854 5854 5853 5852 5851 5850 5850 5849 5848
5850 5850 5850 5851 5851 5851 5851 5851 5851 5852 5852 5853 5853 5853 5853 5854 5854 5854 5854 5854 5854 5855 5855 5854 5854 5854 5854 5853 5853 5852 5852 5851 5851 5850 5849 5848 5847 5846 5846 5845 5844 5843 5842
5846 5846 5846 5847 5847 5847 5847 5848 5848 5848 5848 5848 5849 5849 5849 5849 5849 5849 5849 5849 5850 5850 5850 5849 5849 5849 5848 5848 5848 5847 5846 5846 5845 5844 5843 5843 5842 5840 5840 5839 5837 5837 5836
5842 5842 5843 5843 5843 5843 5843 5843 5844 5844 5844 5844 5844 5844 5844 5844 5844 5844 5844 5844 5844 5844 5844 5844 5844 5843 5843 5842 5842 5841 5840 5840 5839 5838 5837 5836 5835 5834 5833 5832 5830 5829 5828
5837 5838 5838 5839 5839 5839 5839 5839 5840 5840 5840 5840 5840 5839 5840 5839 5839 5838 5838 5839 5839 5839 5839 5838 5838 5838 5838 5837 5836 5835 5834 5833 5833 5832 5831 5829 5828 5827 5826 5824 5823 5821 5820
5833 5834 5834 5834 5834 5835 5835 5836 5836 5836 5836 5836 5835 5835 5835 5834 5833 5833 5832 5833 5833 5833 5833 5832 5832 5832 5831 5831 5830 5829 5827 5826 5825 5824 5823 5821 5820 5818 5817 5816 5814 5813 5812
5829 5829 5830 5830 5830 5831 5831 5831 5832 5832 5832 5832 5831 5831 5830 5829 5828 5827 5827 5827 5827 5827 5826 5826 5825 5825 5824 5823 5822 5821 5820 5819 5817 5816 5815 5813 5812 5810 5809 5807 5806 5804 5803
5824 5825 5826 5826 5826 5826 5827 5827 5827 5827 5827 5827 5827 5827 5826 5825 5824 5823 5822 5821 5821 5821 5820 5820 5819 5818 5817 5816 5815 5814 5812 5811 5810 5808 5807 5805 5803 5801 5799 5797 5796 5793 5791
5820 5820 5821 5821 5821 5822 5822 5822 5823 5822 5823 5823 5822 5822 5821 5820 5819 5818 5817 5816 5816 5815 5814 5813 5812 5811 5810 5809 5807 5806 5805 5803 5801 5800 5798 5797 5795 5792 5790 5787 5785 5782 5780
5815 5816 5816 5816 5817 5817 5817 5817 5817 5817 5817 5817 5817 5816 5816 5815 5814 5813 5812 5811 5810 5809 5808 5806 5805 5804 5802 5801 5800 5798 5796 5794 5793 5791 5789 5787 5785 5782 5779 5776 5773 5770 5767
5810 5811 5811 5811 5812 5812 5812 5812 5812 5812 5811 5811 5811 5810 5809 5809 5808 5807 5806 5805 5804 5803 5801 5800 5798 5796 5794 5793 5791 5789 5787 5785 5783 5781 5779 5777 5774 5771 5768 5765 5762 5759 5755
5805 5806 5806 5806 5806 5806 5806 5806 5806 5806 5805 5805 5804 5804 5803 5802 5801 5800 5799 5798 5797 5795 5794 5792 5791 5789 5786 5784 5782 5779 5777 5775 5773 5771 5769 5766 5763 5760 5757 5753 5750 5746 5743
5800 5800 5800 5801 5801 5800 5800 5800 5800 5799 5799 5798 5798 5797 5796 5795 5794 5794 5793 5791 5790 5788 5786 5784 5782 5780 5778 5775 5773 5771 5768 5766 5763 5761 5758 5755 5752 5748 5745 5741 5737 5734 5730
5794 5794 5794 5795 5795 5795 5794 5794 5793 5793 5792 5792 5791 5790 5789 5788 5787 5786 5785 5783 5782 5780 5778 5776 5774 5771 5769 5766 5764 5761 5759 5756 5753 5750 5747 5744 5740 5736 5733 5729 5725 5721 5717
5789 5789 5789 5789 5789 5789 5788 5788 5787 5786 5786 5785 5784 5784 5783 5782 5780 5779 5778 5776 5774 5772 5770 5768 5766 5763 5760 5757 5755 5752 5749 5745 5742 5739 5735 5732 5728 5724 5720 5716 5712 5707 5703
5784 5784 5784 5784 5783 5783 5782 5782 5781 5780 5779 5779 5778 5777 5776 5775 5773 5772 5770 5768 5766 5764 5762 5760 5757 5754 5752 5748 5745 5742 5738 5735 5731 5727 5724 5720 5716 5711 5707 5703 5698 5693 5688
5779 5779 5779 5778 5778 5777 5776 5776 5775 5774 5773 5772 5771 5770 5769 5767 5766 5764 5762 5760 5758 5756 5753 5751 5748 5745 5742 5739 5735 5732 5728 5724 5720 5716 5711 5707 5703 5698 5693 5689 5684 5679 5675
5774 5773 5773 5773 5772 5771 5770 5770 5769 5768 5767 5765 5764 5763 5761 5760 5758 5755 5753 5751 5749 5747 5744 5741 5739 5736 5732 5729 5725 5722 5717 5713 5709 5704 5700 5695 5690 5685 5680 5675 5671 5666 5661
5768 5768 5767 5767 5766 5765 5764 5764 5762 5761 5760 5758 5757 5755 5753 5751 5749 5747 5745 5743 5740 5738 5735 5732 5729 5725 5722 5719 5715 5711 5707 5702 5697 5693 5688 5683 5678 5673 5668 5663 5658 5653 5647
5763 5762 5762 5761 5760 5759 5758 5757 5756 5754 5752 5751 5749 5747 5745 5743 5741 5739 5737 5734 5732 5729 5726 5722 5719 5716 5712 5708 5704 5700 5696 5691 5686 5681 5676 5671 5666 5661 5656 5651 5645 5640 5635
5757 5756 5756 5755 5754 5753 5752 5750 5749 5747 5745 5743 5741 5739 5737 5735 5733 5731 5728 5726 5723 5720 5716 5713 5710 5706 5702 5698 5694 5689 5685 5680 5675 5670 5665 5660 5655 5650 5644 5639 5633 5628 5623
5751 5750 5750 5749 5748 5746 5745 5744 5742 5740 5738 5736 5734 5732 5730 5727 5725 5722 5720 5717 5714 5710 5707 5704 5700 5696 5692 5688 5684 5679 5674 5669 5664 5659 5653 5648 5643 5638 5632 5627 5622 5616 5611
5744 5744 5743 5742 5741 5740 5739 5737 5735 5733 5732 5729 5727 5724 5722 5719 5717 5714 5711 5708 5705 5701 5698 5694 5690 5686 5682 5678 5673 5668 5663 5658 5653 5648 5642 5637 5632 5626 5621 5615 5610 5604 5599
Wind_Speed
12 13 13 13 13 12 13 14 14 14 14 14 14 14 14 13 13 13 13 13 14 14 14 14 14 15 15 15 16 16 16 16 16 16 17 17 17 17 17 17 17 17 17
11 12 12 13 14 14 13 13 14 14 14 13 13 13 13 13 14 14 14 14 15 15 15 15 15 16 16 16 17 17 18 18 18 18 18 18 18 19 19 19 19 19 19
12 12 12 13 14 14 13 13 13 14 13 13 14 14 14 15 15 16 16 16 16 16 16 16 17 17 17 18 18 18 19 19 19 19 19 20 20 20 20 21 21 21 22
13 13 13 14 14 14 14 14 14 14 14 14 14 15 15 16 16 17 17 17 17 17 17 18 18 18 19 19 19 19 20 20 20 20 20 20 21 21 22 22 23 23 23
15 14 14 14 15 16 15 15 15 15 15 16 16 16 16 16 17 18 18 18 18 18 19 19 19 19 19 20 20 20 21 21 21 21 22 22 22 22 23 24 24 24 25
15 15 15 16 16 15 15 15 15 16 16 17 17 17 17 18 18 19 20 20 20 20 20 21 20 20 20 20 21 21 22 22 23 23 23 23 24 24 25 25 26 26 26
16 16 16 16 16 16 16 15 15 16 16 16 17 18 19 19 20 20 21 22 21 21 21 21 21 21 22 22 23 23 23 23 24 24 24 25 25 26 26 27 26 26 27
16 16 16 16 16 14 14 14 15 15 15 16 16 18 19 20 21 22 23 24 22 21 22 23 23 22 22 23 24 24 25 26 26 26 26 27 27 27 27 28 29 28 28
16 16 16 15 15 14 15 15 15 15 15 15 17 17 18 19 21 23 24 23 23 23 23 23 24 24 25 26 26 26 27 28 27 27 28 27 28 29 30 30 30 30 31
16 16 16 15 15 15 15 16 15 16 16 17 17 17 17 18 20 21 22 22 22 23 24 25 25 26 27 28 28 28 28 28 28 29 29 29 30 30 31 31 32 33 34
15 16 16 16 16 15 15 16 17 17 18 18 18 18 19 19 20 21 22 22 22 23 24 25 26 27 28 28 28 29 29 29 29 30 30 30 31 32 33 34 35 36 37
16 17 17 16 16 17 17 17 18 18 18 18 19 20 20 20 21 21 22 22 23 24 24 25 26 27 28 29 29 30 30 31 31 31 31 32 32 34 35 37 38 40 41
17 17 17 16 16 17 18 19 19 19 20 20 21 21 22 22 22 22 22 22 23 23 24 25 26 27 28 29 30 31 32 33 33 32 32 33 35 36 37 38 40 41 42
17 17 17 18 18 18 19 20 20 20 21 22 22 22 22 23 24 24 23 23 24 25 25 26 27 28 29 30 31 32 33 33 32 33 34 36 37 38 39 40 41 42 42
18 18 18 18 18 19 19 19 20 20 22 22 23 23 24 24 24 24 24 25 26 27 28 28 29 30 30 31 32 33 33 33 34 35 36 38 39 40 41 42 43 44 44
18 18 18 18 18 19 20 20 21 22 23 23 24 24 24 24 24 25 26 27 28 28 29 29 30 31 32 32 32 33 34 35 36 37 38 39 40 40 41 42 43 44 45
18 19 18 18 19 19 20 21 22 22 23 23 23 23 24 24 25 26 27 28 29 29 29 31 31 32 32 33 34 35 35 36 37 38 39 40 41 42 43 44 44 45 46
17 17 17 17 18 19 20 21 22 23 23 23 23 23 24 24 25 26 27 28 29 29 30 30 31 31 32 33 34 35 36 37 38 39 40 41 42 43 44 45 46 47 48
17 17 17 17 18 18 19 20 22 23 23 22 23 24 24 25 26 27 28 28 29 30 31 32 32 32 33 34 35 36 38 38 39 40 41 43 44 45 45 46 47 47 48
16 17 17 18 18 19 19 20 21 22 22 23 24 24 25 26 28 29 29 29 30 31 32 33 33 34 34 35 36 37 38 38 39 40 42 43 44 45 45 46 46 47 47
17 18 18 18 19 19 20 21 21 22 23 24 25 25 27 28 29 30 30 31 32 32 33 34 34 35 36 36 37 38 38 39 40 41 41 42 43 44 45 45 46 46 47
19 19 19 19 20 20 21 21 22 22 23 24 25 26 27 28 30 30 31 31 31 32 33 34 35 35 35 36 37 38 39 40 41 41 42 42 43 44 44 44 45 45 46
20 20 20 21 21 21 22 22 23 23 24 24 25 26 28 29 29 29 30 31 32 33 34 34 34 35 36 36 37 38 40 41 42 43 43 43 43 43 44 44 44 45 45
21 21 21 21 21 21 22 22 23 23 23 24 25 26 27 27 28 29 30 32 33 33 33 34 34 35 36 37 38 39 41 42 42 42 42 42 43 44 44 44 45 45 45
22 22 21 21 22 22 22 22 23 23 24 25 26 26 27 27 29 30 31 32 33 33 34 34 35 36 37 38 39 40 41 41 41 41 42 42 43 43 44 44 44 44 44
22 22 22 22 22 22 22 22 23 24 25 26 27 27 28 29 30 31 32 33 33 34 34 35 35 36 37 38 39 40 40 41 41 42 42 42 43 43 43 42 42 42 42
Wind_Direction
269 264 262 260 266 269 265 261 257 257 256 257 257 256 256 258 261 266 266 265 263 264 264 264 263 265 270 273 273 273 275 276 277 276 278 279 279 279 278 279 279 280 280
269 269 267 264 264 265 267 263 260 256 256 258 258 259 257 258 261 263 267 267 266 265 265 265 265 267 271 274 273 274 274 275 275 275 277 278 280 280 279 280 280 280 279
266 268 269 270 269 268 267 267 262 256 256 258 259 260 260 260 263 265 267 270 269 267 266 266 267 269 272 275 275 275 275 276 275 274 275 277 280 280 280 281 282 281 280
263 265 266 268 269 269 267 265 262 259 258 259 260 260 261 263 265 267 267 269 269 268 268 268 270 272 273 275 275 276 276 276 275 273 274 277 279 279 280 280 281 280 279
261 259 263 265 266 266 265 265 263 262 260 259 260 261 263 265 268 268 267 268 270 269 268 269 271 272 274 274 275 276 276 276 275 274 275 277 279 281 281 280 279 279 278
260 259 263 268 267 266 265 264 262 261 261 261 261 262 266 268 270 270 269 268 269 270 270 270 271 271 273 274 275 277 277 276 275 276 277 277 279 281 282 281 280 280 278
260 261 264 269 269 270 264 262 263 264 264 266 264 265 269 269 269 269 269 270 270 270 271 272 272 274 274 275 276 277 277 276 276 278 279 278 278 280 281 282 281 280 279
258 261 266 268 268 266 263 261 262 264 266 267 268 269 270 271 270 270 271 270 269 271 273 272 272 273 275 277 279 280 279 279 279 279 280 280 279 278 279 280 281 281 281
253 257 262 265 265 265 263 263 263 264 267 270 272 273 275 273 271 272 271 270 270 271 273 274 274 273 276 279 280 281 281 282 281 281 283 282 280 279 280 281 282 283 283
253 258 261 262 264 264 264 264 264 266 268 271 274 275 278 279 278 276 273 272 270 271 271 272 274 276 278 279 280 282 282 283 282 281 281 282 281 281 282 282 283 283 283
254 258 261 263 262 264 266 266 266 267 270 272 273 276 278 279 280 278 273 272 272 273 273 273 275 277 279 281 282 283 283 283 283 281 281 283 284 283 284 284 284 284 284
257 257 259 261 263 264 264 266 267 267 271 274 276 276 279 280 280 280 277 275 274 274 274 276 279 280 280 281 282 283 284 284 282 282 283 284 285 285 286 286 286 286 285
258 258 260 262 265 266 267 266 268 269 271 275 278 278 278 280 279 281 280 277 276 278 280 281 282 282 281 282 284 285 285 284 283 283 284 285 287 288 288 288 288 288 288
259 259 261 266 269 269 267 268 268 269 272 275 278 279 279 278 279 279 278 278 279 280 281 283 283 283 284 285 285 284 284 284 283 283 285 286 287 289 290 289 289 289 289
261 262 264 268 269 266 266 269 270 271 274 275 278 279 279 280 280 279 281 281 282 283 283 285 286 287 287 286 285 285 286 286 285 286 287 289 290 290 291 290 290 290 290
266 266 267 268 268 269 268 269 271 273 275 276 278 279 279 280 282 283 284 284 284 285 285 286 287 288 289 288 287 287 287 287 287 287 288 289 290 290 291 291 292 292 292
271 272 270 270 269 270 272 271 271 273 274 276 279 280 281 282 282 284 286 285 286 287 288 288 288 288 289 288 289 289 289 289 289 290 290 291 291 292 292 293 294 294 294
272 274 275 275 275 276 276 274 274 276 277 278 280 281 282 281 282 283 285 287 287 287 288 290 290 291 291 292 293 293 292 292 292 292 292 292 293 293 294 294 294 295 295
274 277 280 280 281 280 278 277 277 277 278 279 280 281 282 283 284 284 285 286 287 289 290 291 293 293 294 294 295 295 295 295 294 294 293 293 294 294 295 295 296 297 297
273 276 279 281 282 282 283 283 283 283 282 281 281 282 284 286 286 286 286 287 288 289 291 292 294 294 295 295 296 298 298 298 298 297 297 297 296 296 296 297 297 298 298
275 278 279 282 283 284 284 286 286 284 284 284 284 285 287 287 288 288 288 289 289 290 291 292 293 295 296 297 298 299 300 300 300 301 301 300 300 299 299 299 300 300 299
276 278 280 283 284 285 285 286 287 289 289 287 287 288 289 290 290 290 290 291 291 292 293 294 295 297 299 300 300 301 302 302 302 303 302 302 303 303 302 302 301 301 301
273 278 281 284 285 285 286 285 286 288 289 290 291 292 292 293 293 292 291 292 294 294 294 296 298 299 299 300 301 302 303 303 302 302 303 304 304 304 303 302 302 302 302
273 277 281 283 285 286 286 286 287 289 290 290 292 293 294 294 293 293 294 294 295 296 296 297 298 299 300 301 302 303 304 304 305 304 304 304 304 304 304 304 304 304 304
274 276 278 281 283 285 287 289 289 291 292 293 293 294 295 294 293 293 294 295 296 296 297 298 299 300 302 303 304 305 306 306 306 305 305 306 306 306 305 305 305 306 306
275 275 278 281 282 285 288 290 291 293 293 292 293 294 294 293 292 292 294 296 296 297 299 301 302 303 304 305 306 307 307 307 307 307 308 308 308 308 307 307 307 307 306